This is the latest recevied weather packets stored in our database for station/object SV5DDT-12. If no packets are shown the sender has not sent any weather packets the latest 10 day(s).
| Time | Temp. | Humidity | Pressure | Rain* | Wind** | Luminosity | Snow |
|---|---|---|---|---|---|---|---|
| 1777886087 | 21.67° C | 45% | 1014.6 hPa | - | - | - | - |
| 1777885186 | 21.67° C | 45% | 1014.6 hPa | - | - | - | - |
| 1777884286 | 21.67° C | 45% | 1014.4 hPa | - | - | - | - |
| 1777883386 | 21.67° C | 46% | 1014.3 hPa | - | - | - | - |
| 1777882486 | 21.67° C | 46% | 1014.1 hPa | - | - | - | - |
| 1777881586 | 21.67° C | 46% | 1014.2 hPa | - | - | - | - |
| 1777880686 | 21.67° C | 46% | 1014.1 hPa | - | - | - | - |
| 1777879786 | 22.22° C | 49% | 1013.6 hPa | - | - | - | - |
| 1777878886 | 22.22° C | 53% | 1013.5 hPa | - | - | - | - |
| 1777877985 | 22.22° C | 52% | 1013.1 hPa | - | - | - | - |
| 1777877085 | 22.22° C | 51% | 1012.8 hPa | - | - | - | - |
| 1777876185 | 22.22° C | 48% | 1012.7 hPa | - | - | - | - |
| 1777875285 | 22.22° C | 48% | 1012.7 hPa | - | - | - | - |
| 1777874385 | 22.22° C | 48% | 1012.4 hPa | - | - | - | - |
| 1777873485 | 22.22° C | 48% | 1012.4 hPa | - | - | - | - |
| 1777872585 | 21.67° C | 47% | 1012.2 hPa | - | - | - | - |
| 1777871685 | 21.67° C | 44% | 1011.9 hPa | - | - | - | - |
| 1777870784 | 22.22° C | 51% | 1012.1 hPa | - | - | - | - |
| 1777869884 | 22.22° C | 52% | 1011.7 hPa | - | - | - | - |
| 1777868984 | 22.22° C | 51% | 1011.5 hPa | - | - | - | - |
| 1777868084 | 22.22° C | 51% | 1011.1 hPa | - | - | - | - |
| 1777867184 | 22.22° C | 51% | 1010.7 hPa | - | - | - | - |
| 1777866284 | 22.22° C | 51% | 1010.5 hPa | - | - | - | - |
| 1777865384 | 22.22° C | 51% | 1010.4 hPa | - | - | - | - |
| 1777864484 | 22.22° C | 51% | 1010.4 hPa | - | - | - | - |
* Rain since midnight (hover to see other rain measurements)
** Current wind speed in m/s (hover to see current wind gust speed)